Location: Newark
(35.6799°N, 139.7636°E)
Time: 02:59:33
(UTC+00:00)

Courier 1B - Pass Details

Date: 12 December 2019
Orbit: 962 x 1209 km, 28.3° (Epoch: 23 January)

Event Time Altitude Azimuth Distance (km) Brightness Sun altitude
Rises 09:13:59 0° 210° (SSW) 3,763 11.2 -20.9°
Reaches altitude 10° 09:17:36 10° 192° (SSW) 2,859 10.2 -21.6°
Maximum altitude 09:22:02 18° 152° (SSE) 2,390 9.4 -22.5°
Enters shadow 09:23:41 17° 135° (SE) 2,489 9.3 -22.8°
